Location: *
(33.3200°N, 8.3381°W)
Time: 19:25:23
(UTC+00:00)

FALCON 9 DEB - Pass Details

Date: 09 April 2020
Orbit: 429 x 442 km, 53.0° (Epoch: 27 May)

Event Time Altitude Azimuth Distance (km) Brightness Sun altitude
Rises 19:21:42 0° 235° (SW) 2,417 7.6 -5.3°
Reaches altitude 10° 19:23:51 10° 241° (WSW) 1,551 6.7 -5.7°
Maximum altitude 19:27:14 48° 317° (NW) 584 4.2 -6.4°
Drops below altitude 10° 19:30:39 10° 33° (NNE) 1,557 5.7 -7.1°
Sets 19:32:49 0° 39° (NE) 2,428 6.7 -7.5°
